Regional Weather Roundup
Issued by NWS Jackson, KY

Home | Current Version | Previous Version | Graphics & Text | Print | Product List | Glossary Off
Versions: 1 2 3 4 5 6 7 8 9 10 11 12 13 14 15 16 17 18 19 20 21 22 23 24 25 26 27 28 29 30 31 32 33 34 35 36 37 38 39 40 41 42 43 44 45 46 47 48 49 50

000
ASUS43 KJKL 260319
RWRJKL

EAST KENTUCKY HOURLY WEATHER ROUNDUP
NATIONAL WEATHER SERVICE JACKSON KY
1100 PM EDT FRI JUL 25 2014

NOTE: "FAIR" INDICATES FEW OR NO CLOUDS BELOW 12,000 FEET WITH
NO SIGNIFICANT WEATHER AND/OR OBSTRUCTIONS TO VISIBILITY.

* THESE REPORTS ARE NOT UNDER NWS QUALITY CONTROL AND MAY NOT
  REPORT WEATHER SUCH AS PRECIPITATION AND FOG.

KYZ079-080-083-085-087-088-110-112-115-119-120-260400
...EASTERN KENTUCKY...

CITY           SKY/WX    TMP DP  RH WIND       PRES   REMARKS
JACKSON        CLOUDY    67  57  70 S3        30.04F
LONDON         MOCLDY    69  61  75 CALM      30.05R
SOMERSET*      PTCLDY    64  63  94 CALM      30.05R
MONTICELLO*    PTCLDY    63  62  96 CALM      30.06R
MIDDLESBORO*   PTCLDY    67  64  90 CALM      30.06R
HARLAN APT*    MOCLDY    63  63 100 MISG      30.07R
BLACK MTN*       N/A     61  57  88 S2          N/A
PIKEVILLE APT* CLEAR     68  59  73 CALM      30.06R
BIG SANDY*     MOCLDY    66  62  87 CALM      30.04F
MOREHEAD APT*  CLOUDY    68  63  83 S3        30.04S
ASHLAND*       CLEAR     70  59  68 CALM      29.99F
$$

KYZ035-036-041-042-044-050-067-078-099-260400
...CENTRAL KENTUCKY...

CITY           SKY/WX    TMP DP  RH WIND       PRES   REMARKS
MT STERLING*   PTCLDY    64  61  88 SW3       30.04S
FLEMING/MASON* PTCLDY    69  60  74 S5        30.02S
DANVILLE*      PTCLDY    64  61  88 SW3       30.04S
RICHMOND*      PTCLDY    68  61  77 SE3       30.03S
LEXINGTON      PTCLDY    70  58  65 SE5       30.02R
FRANKFORT      PTCLDY    71  60  68 S5        30.00R
$$

KYZ091>093-OHZ055-061-077-WVZ005-015-034-035-042-260400
...SOUTHERN OHIO/WEST VIRGINIA...

CITY           SKY/WX    TMP DP  RH WIND       PRES   REMARKS
COVINGTON      MOCLDY    67  58  72 CALM      30.01R
COLUMBUS       CLOUDY    73  58  59 CALM      30.01R
DAYTON         CLOUDY    69  59  70 CALM      30.03R
WILMINGTON     MOCLDY    70  59  68 NW5       30.02R
HUNTINGTON     CLOUDY    65  61  87 E3        30.01F
CHARLESTON     MOCLDY    64  63  96 SE5       30.03S
PINEVILLE*     PTCLDY    62  62 100 MISG      30.13R
BECKLEY        PTCLDY    62  54  74 CALM      30.11R
BLUEFIELD      PTCLDY    66  59  78 CALM      30.12S
$$

VAZ002-007-008-TNZ017-027-036-066-071-260400
...SOUTHWEST VIRGINIA/EAST TENNESSEE...

CITY           SKY/WX    TMP DP  RH WIND       PRES   REMARKS
WISE*          MOCLDY    63  63 100 CALM      30.12S
JONESVILLE*      N/A     64  64 100 CALM      30.08R
ABINGDON*      PTCLDY    65  62  88 N3        30.09R
BRISTOL        PTCLDY    65  60  84 CALM      30.06R
KNOXVILLE      PTCLDY    74  62  66 CALM      30.02R
OAK RIDGE      PTCLDY    71  65  81 CALM      30.04R
CROSSVILLE     PTCLDY    65  59  81 CALM      30.07R
NASHVILLE      MOCLDY    76  62  62 CALM      30.00R
$$

...KEY TO REMARKS...
VSB - VISIBILITY IN MILES
WCI - WIND CHILL INDEX
HX  - HEAT INDEX

$$


USA.gov is the U.S. government's official web portal to all federal, state and local government web resources and services.